Regional Weather Roundup
Issued by NWS Cleveland, OH

Home | Current Version | Previous Version | Graphics & Text | Print | Product List | Glossary Off
Versions: 1 2 3 4 5 6 7 8 9 10 11 12 13 14 15 16 17 18 19 20 21 22 23 24 25 26 27 28 29 30 31 32 33 34 35 36 37 38 39 40 41 42 43 44 45 46 47 48 49 50

000
ASUS41 KCLE 180302
RWRCLE
OHIO REGIONAL WEATHER ROUNDUP
NATIONAL WEATHER SERVICE CLEVELAND, OH
1000 PM EST WED DEC 17 2014

NOTE: "FAIR" INDICATES FEW OR NO CLOUDS BELOW 12,000 FEET WITH NO
SIGNIFICANT WEATHER AND/OR OBSTRUCTIONS TO VISIBILITY.

OHZ001>008-015>018-024>027-034-035-043-044-180400-
   NORTHWEST OHIO

CITY           SKY/WX    TMP DP  RH WIND       PRES   REMARKS
DEFIANCE       NOT AVBL
FINDLAY        CLOUDY    28  23  81 W15       30.20R WCI  16
TOLEDO EXPRESS CLOUDY    29  21  72 W9        30.19R WCI  20
TOLEDO EXEC    CLOUDY    30  19  63 W15       30.20R WCI  19
LIMA           CLOUDY    30  21  69 W14       30.21S WCI  19
$$

OHZ009>014-019>023-028>033-038-089-180400-
   NORTHEAST OHIO

CITY           SKY/WX    TMP DP  RH WIND       PRES   REMARKS
CLE-HOPKINS    FLURRIES  29  22  75 W14       30.17S WCI  18
CLE-LAKEFRONT  CLOUDY    31  24  75 W23G30    30.13F WCI  18
CUY CO. ARPT   CLOUDY    32  27  80 W12G21    30.13S WCI  23
LORAIN-ELYRIA  CLOUDY    29  21  72 W13       30.16R WCI  19
ASHTABULA      FLURRIES  29  24  82 W13       30.09S WCI  19
AKRON-CANTON   FLURRIES  28  22  78 NW16G23   30.13S WCI  16
WOOSTER        CLOUDY    28  21  75 W12       30.16S WCI  18
MANSFIELD      CLOUDY    27  21  78 W9        30.15S WCI  18
YOUNGSTOWN     FLURRIES  29  20  69 W12G23    30.10S WCI  19
$$

OHZ042-051>053-060>062-070>072-077>081-180400-
  SOUTHWEST OHIO

CITY           SKY/WX    TMP DP  RH WIND       PRES   REMARKS
CINC-COVINGTON CLOUDY    28  20  71 NW10      30.26R WCI  19
CINC-LUNKEN    CLOUDY    28  21  75 NW9       30.30R WCI  19
HAMILTON       CLOUDY    28  21  75 NW10      30.29R WCI  19
DAYTON         CLOUDY    26  20  77 NW10      30.25R WCI  16
WRIGHT-PAT AFB CLOUDY    26  20  78 NW13      30.25S WCI  15
DAYTON GENERAL CLOUDY    26  20  77 W10G18    30.25S WCI  16
WILMINGTON     CLOUDY    26  20  77 NW12      30.24R WCI  16
$$

OHZ036-037-039>041-045>050-054>059-063>069-073>076-082>088-180400-
  CENTRAL AND SOUTHEAST OHIO

CITY           SKY/WX    TMP DP  RH WIND       PRES   REMARKS
COLUMBUS       CLOUDY    27  21  78 W9        30.23R WCI  18
OSU AIRPORT    CLOUDY    27  22  81 W10       30.22S WCI  17
BOLTON FIELD   NOT AVBL
RICKENBACK AFB NOT AVBL
NEWARK         CLOUDY    28  22  78 NW10      30.21S WCI  19
MARION         CLOUDY    27  20  75 W12       30.20S WCI  17
LANCASTER      CLOUDY    28  20  71 W9G22     30.23R WCI  19
ZANESVILLE     CLOUDY    28  19  69 W15G24    30.20R WCI  16
NEW PHILLY     CLOUDY    29  20  69 W9        30.19R WCI  20
$$


USA.gov is the U.S. government's official web portal to all federal, state and local government web resources and services.